owner,sensor,date,latitude,longitude,relative_humidity,qcFlag 
COMPS,ioos:station:USF.COMPS:C12:1,2016-01-01T05:05:00Z,27.4980,-83.7220,101.87,1111122 
COMPS,ioos:station:USF.COMPS:C12:1,2016-01-01T05:35:00Z,27.4980,-83.7220,100.93,1111122 
COMPS,ioos:station:USF.COMPS:C12:1,2016-01-01T06:05:00Z,27.4980,-83.7220,100.04,1111122 
COMPS,ioos:station:USF.COMPS:C12:1,2016-01-01T06:35:00Z,27.4980,-83.7220,101.6,1111122 
COMPS,ioos:station:USF.COMPS:C12:1,2016-01-01T07:05:00Z,27.4980,-83.7220,100.85,1111122 
COMPS,ioos:station:USF.COMPS:C12:1,2016-01-01T07:35:00Z,27.4980,-83.7220,101.95,1111122 
COMPS,ioos:station:USF.COMPS:C12:1,2016-01-01T08:05:00Z,27.4980,-83.7220,102.0,1111122 
COMPS,ioos:station:USF.COMPS:C12:1,2016-01-01T08:35:00Z,27.4980,-83.7220,102.0,1111122 
COMPS,ioos:station:USF.COMPS:C12:1,2016-01-01T09:05:00Z,27.4980,-83.7220,101.94,1111122 
COMPS,ioos:station:USF.COMPS:C12:1,2016-01-01T09:35:00Z,27.4980,-83.7220,101.93,1111122 
COMPS,ioos:station:USF.COMPS:C12:1,2016-01-01T10:05:00Z,27.4980,-83.7220,100.69,1111122 
COMPS,ioos:station:USF.COMPS:C12:1,2016-01-01T10:35:00Z,27.4980,-83.7220,102.0,1111122 
COMPS,ioos:station:USF.COMPS:C12:1,2016-01-01T11:05:00Z,27.4980,-83.7220,101.31,1111122 
COMPS,ioos:station:USF.COMPS:C12:1,2016-01-01T11:35:00Z,27.4980,-83.7220,101.98,1111122 
COMPS,ioos:station:USF.COMPS:C12:1,2016-01-01T12:05:00Z,27.4980,-83.7220,102.02,1111122 
COMPS,ioos:station:USF.COMPS:C12:1,2016-01-01T12:35:00Z,27.4980,-83.7220,101.46,1111122 
COMPS,ioos:station:USF.COMPS:C12:1,2016-01-01T13:05:00Z,27.4980,-83.7220,101.89,1111122 
COMPS,ioos:station:USF.COMPS:C12:1,2016-01-01T13:35:00Z,27.4980,-83.7220,101.47,1111122 
COMPS,ioos:station:USF.COMPS:C12:1,2016-01-01T14:05:00Z,27.4980,-83.7220,101.56,1111122 
COMPS,ioos:station:USF.COMPS:C12:1,2016-01-01T14:35:00Z,27.4980,-83.7220,101.96,1111122 
COMPS,ioos:station:USF.COMPS:C12:1,2016-01-01T15:05:00Z,27.4980,-83.7220,100.96,1111122 
COMPS,ioos:station:USF.COMPS:C12:1,2016-01-01T15:35:00Z,27.4980,-83.7220,101.96,1111122 
COMPS,ioos:station:USF.COMPS:C12:1,2016-01-01T16:05:00Z,27.4980,-83.7220,101.46,1111122 
COMPS,ioos:station:USF.COMPS:C12:1,2016-01-01T16:35:00Z,27.4980,-83.7220,101.98,1111122 
COMPS,ioos:station:USF.COMPS:C12:1,2016-01-01T17:05:00Z,27.4980,-83.7220,101.83,1111122 
COMPS,ioos:station:USF.COMPS:C12:1,2016-01-01T17:35:00Z,27.4980,-83.7220,101.92,1111122 
COMPS,ioos:station:USF.COMPS:C12:1,2016-01-01T18:05:00Z,27.4980,-83.7220,101.97,1111122 
COMPS,ioos:station:USF.COMPS:C12:1,2016-01-01T18:35:00Z,27.4980,-83.7220,100.96,1111122 
COMPS,ioos:station:USF.COMPS:C12:1,2016-01-02T05:05:00Z,27.4980,-83.7220,100.87,1111122 
COMPS,ioos:station:USF.COMPS:C12:1,2016-01-02T05:35:00Z,27.4980,-83.7220,100.29,1111122 
COMPS,ioos:station:USF.COMPS:C12:1,2016-01-02T06:05:00Z,27.4980,-83.7220,100.54,1111122 
COMPS,ioos:station:USF.COMPS:C12:1,2016-01-02T06:35:00Z,27.4980,-83.7220,100.61,1111122 
COMPS,ioos:station:USF.COMPS:C12:1,2016-01-02T07:05:00Z,27.4980,-83.7220,100.34,1111122 
COMPS,ioos:station:USF.COMPS:C12:1,2016-01-02T07:35:00Z,27.4980,-83.7220,100.36,1111122 
COMPS,ioos:station:USF.COMPS:C12:1,2016-01-02T08:05:00Z,27.4980,-83.7220,100.43,1111122 
COMPS,ioos:station:USF.COMPS:C12:1,2016-01-02T08:35:00Z,27.4980,-83.7220,100.41,1111122 
COMPS,ioos:station:USF.COMPS:C12:1,2016-01-02T09:05:00Z,27.4980,-83.7220,100.38,1111122 
COMPS,ioos:station:USF.COMPS:C12:1,2016-01-02T09:35:00Z,27.4980,-83.7220,100.4,1111122 
COMPS,ioos:station:USF.COMPS:C12:1,2016-01-02T10:05:00Z,27.4980,-83.7220,100.41,1111122 
COMPS,ioos:station:USF.COMPS:C12:1,2016-01-02T10:35:00Z,27.4980,-83.7220,100.37,1111122 
COMPS,ioos:station:USF.COMPS:C12:1,2016-01-02T11:05:00Z,27.4980,-83.7220,100.43,1111122 
COMPS,ioos:station:USF.COMPS:C12:1,2016-01-02T11:35:00Z,27.4980,-83.7220,100.39,1111122 
COMPS,ioos:station:USF.COMPS:C12:1,2016-01-02T12:05:00Z,27.4980,-83.7220,100.45,1111122 
COMPS,ioos:station:USF.COMPS:C12:1,2016-01-02T12:35:00Z,27.4980,-83.7220,100.43,1111122 
COMPS,ioos:station:USF.COMPS:C12:1,2016-01-02T13:05:00Z,27.4980,-83.7220,100.45,1111122 
COMPS,ioos:station:USF.COMPS:C12:1,2016-01-02T13:35:00Z,27.4980,-83.7220,100.46,1111122 
COMPS,ioos:station:USF.COMPS:C12:1,2016-01-02T14:05:00Z,27.4980,-83.7220,100.6,1111122 
COMPS,ioos:station:USF.COMPS:C12:1,2016-01-02T14:35:00Z,27.4980,-83.7220,100.6,1111122 
COMPS,ioos:station:USF.COMPS:C12:1,2016-01-02T15:05:00Z,27.4980,-83.7220,100.53,1111122 
COMPS,ioos:station:USF.COMPS:C12:1,2016-01-02T15:35:00Z,27.4980,-83.7220,100.64,1111122 
COMPS,ioos:station:USF.COMPS:C12:1,2016-01-02T16:05:00Z,27.4980,-83.7220,100.59,1111122 
COMPS,ioos:station:USF.COMPS:C12:1,2016-01-02T16:35:00Z,27.4980,-83.7220,100.64,1111122 
COMPS,ioos:station:USF.COMPS:C12:1,2016-01-02T17:05:00Z,27.4980,-83.7220,100.65,1111122 
COMPS,ioos:station:USF.COMPS:C12:1,2016-01-02T17:35:00Z,27.4980,-83.7220,100.59,1111122 
COMPS,ioos:station:USF.COMPS:C12:1,2016-01-02T18:05:00Z,27.4980,-83.7220,100.59,1111122 
COMPS,ioos:station:USF.COMPS:C12:1,2016-01-02T18:35:00Z,27.4980,-83.7220,100.8,1111122 
COMPS,ioos:station:USF.COMPS:C12:1,2016-01-02T19:05:00Z,27.4980,-83.7220,100.63,1111122 
COMPS,ioos:station:USF.COMPS:C12:1,2016-01-02T19:35:00Z,27.4980,-83.7220,100.66,1111122 
COMPS,ioos:station:USF.COMPS:C12:1,2016-01-02T20:05:00Z,27.4980,-83.7220,100.83,1111122 
COMPS,ioos:station:USF.COMPS:C12:1,2016-01-02T20:35:00Z,27.4980,-83.7220,100.57,1111122 
COMPS,ioos:station:USF.COMPS:C12:1,2016-01-02T21:05:00Z,27.4980,-83.7220,100.51,1111122 
COMPS,ioos:station:USF.COMPS:C12:1,2016-01-02T21:35:00Z,27.4980,-83.7220,100.48,1111122 
COMPS,ioos:station:USF.COMPS:C12:1,2016-01-02T22:05:00Z,27.4980,-83.7220,100.57,1111122 
COMPS,ioos:station:USF.COMPS:C12:1,2016-01-02T22:35:00Z,27.4980,-83.7220,100.78,1111122 
COMPS,ioos:station:USF.COMPS:C12:1,2016-01-02T23:05:00Z,27.4980,-83.7220,100.76,1111122 
COMPS,ioos:station:USF.COMPS:C12:1,2016-01-02T23:35:00Z,27.4980,-83.7220,100.68,1111122 
COMPS,ioos:station:USF.COMPS:C12:1,2016-01-03T00:05:00Z,27.4980,-83.7220,100.61,1111122 
COMPS,ioos:station:USF.COMPS:C12:1,2016-01-03T00:35:00Z,27.4980,-83.7220,100.51,1111122 
COMPS,ioos:station:USF.COMPS:C12:1,2016-01-03T05:05:00Z,27.4980,-83.7220,100.42,1111122 
COMPS,ioos:station:USF.COMPS:C12:1,2016-01-03T05:35:00Z,27.4980,-83.7220,100.42,1111122 
COMPS,ioos:station:USF.COMPS:C12:1,2016-01-03T06:05:00Z,27.4980,-83.7220,100.43,1111122 
COMPS,ioos:station:USF.COMPS:C12:1,2016-01-03T06:35:00Z,27.4980,-83.7220,100.45,1111122 
COMPS,ioos:station:USF.COMPS:C12:1,2016-01-03T07:05:00Z,27.4980,-83.7220,100.44,1111122 
COMPS,ioos:station:USF.COMPS:C12:1,2016-01-03T07:35:00Z,27.4980,-83.7220,100.42,1111122 
COMPS,ioos:station:USF.COMPS:C12:1,2016-01-03T08:05:00Z,27.4980,-83.7220,100.49,1111122 
COMPS,ioos:station:USF.COMPS:C12:1,2016-01-03T08:35:00Z,27.4980,-83.7220,100.5,1111122 
COMPS,ioos:station:USF.COMPS:C12:1,2016-01-03T09:05:00Z,27.4980,-83.7220,100.54,1111122 
COMPS,ioos:station:USF.COMPS:C12:1,2016-01-03T09:35:00Z,27.4980,-83.7220,100.48,1111122 
COMPS,ioos:station:USF.COMPS:C12:1,2016-01-03T10:05:00Z,27.4980,-83.7220,100.49,1111122 
COMPS,ioos:station:USF.COMPS:C12:1,2016-01-03T10:35:00Z,27.4980,-83.7220,100.43,1111122 
COMPS,ioos:station:USF.COMPS:C12:1,2016-01-03T11:05:00Z,27.4980,-83.7220,100.49,1111122 
COMPS,ioos:station:USF.COMPS:C12:1,2016-01-03T11:35:00Z,27.4980,-83.7220,100.53,1111122 
COMPS,ioos:station:USF.COMPS:C12:1,2016-01-03T12:05:00Z,27.4980,-83.7220,100.54,1111122 
COMPS,ioos:station:USF.COMPS:C12:1,2016-01-03T12:35:00Z,27.4980,-83.7220,100.61,1111122 
COMPS,ioos:station:USF.COMPS:C12:1,2016-01-03T13:05:00Z,27.4980,-83.7220,100.54,1111122 
COMPS,ioos:station:USF.COMPS:C12:1,2016-01-03T13:35:00Z,27.4980,-83.7220,100.48,1111122 
COMPS,ioos:station:USF.COMPS:C12:1,2016-01-03T14:05:00Z,27.4980,-83.7220,100.67,1111122 
COMPS,ioos:station:USF.COMPS:C12:1,2016-01-03T14:35:00Z,27.4980,-83.7220,100.76,1111122 
COMPS,ioos:station:USF.COMPS:C12:1,2016-01-03T15:05:00Z,27.4980,-83.7220,100.73,1111122 
COMPS,ioos:station:USF.COMPS:C12:1,2016-01-03T15:35:00Z,27.4980,-83.7220,100.93,1111122 
COMPS,ioos:station:USF.COMPS:C12:1,2016-01-03T16:05:00Z,27.4980,-83.7220,101.11,1111122 
COMPS,ioos:station:USF.COMPS:C12:1,2016-01-03T16:35:00Z,27.4980,-83.7220,101.1,1111122 
COMPS,ioos:station:USF.COMPS:C12:1,2016-01-03T17:05:00Z,27.4980,-83.7220,101.14,1111122 
COMPS,ioos:station:USF.COMPS:C12:1,2016-01-03T17:35:00Z,27.4980,-83.7220,100.94,1111122 
COMPS,ioos:station:USF.COMPS:C12:1,2016-01-03T18:05:00Z,27.4980,-83.7220,100.77,1111122 
COMPS,ioos:station:USF.COMPS:C12:1,2016-01-03T18:35:00Z,27.4980,-83.7220,100.7,1111122 
COMPS,ioos:station:USF.COMPS:C12:1,2016-01-03T19:05:00Z,27.4980,-83.7220,100.65,1111122 
COMPS,ioos:station:USF.COMPS:C12:1,2016-01-03T19:35:00Z,27.4980,-83.7220,100.77,1111122 
COMPS,ioos:station:USF.COMPS:C12:1,2016-01-03T20:05:00Z,27.4980,-83.7220,100.64,1111122 
COMPS,ioos:station:USF.COMPS:C12:1,2016-01-03T20:35:00Z,27.4980,-83.7220,100.63,1111122 
COMPS,ioos:station:USF.COMPS:C12:1,2016-01-03T21:05:00Z,27.4980,-83.7220,100.66,1111122 
COMPS,ioos:station:USF.COMPS:C12:1,2016-01-03T21:35:00Z,27.4980,-83.7220,100.58,1111122 
COMPS,ioos:station:USF.COMPS:C12:1,2016-01-03T22:05:00Z,27.4980,-83.7220,100.63,1111122 
COMPS,ioos:station:USF.COMPS:C12:1,2016-01-03T22:35:00Z,27.4980,-83.7220,100.6,1111122 
COMPS,ioos:station:USF.COMPS:C12:1,2016-01-03T23:05:00Z,27.4980,-83.7220,100.54,1111122 
COMPS,ioos:station:USF.COMPS:C12:1,2016-01-03T23:35:00Z,27.4980,-83.7220,100.63,1111122 
COMPS,ioos:station:USF.COMPS:C12:1,2016-01-04T00:05:00Z,27.4980,-83.7220,100.7,1111122 
COMPS,ioos:station:USF.COMPS:C12:1,2016-01-04T00:35:00Z,27.4980,-83.7220,100.64,1111122 
COMPS,ioos:station:USF.COMPS:C12:1,2016-01-04T01:05:00Z,27.4980,-83.7220,100.9,1111122 
COMPS,ioos:station:USF.COMPS:C12:1,2016-01-04T01:35:00Z,27.4980,-83.7220,100.61,1111122 
COMPS,ioos:station:USF.COMPS:C12:1,2016-01-04T02:05:00Z,27.4980,-83.7220,100.51,1111122 
COMPS,ioos:station:USF.COMPS:C12:1,2016-01-04T02:35:00Z,27.4980,-83.7220,100.67,1111122 
COMPS,ioos:station:USF.COMPS:C12:1,2016-01-04T03:05:00Z,27.4980,-83.7220,100.86,1111122 
COMPS,ioos:station:USF.COMPS:C12:1,2016-01-04T03:35:00Z,27.4980,-83.7220,101.32,1111122 
COMPS,ioos:station:USF.COMPS:C12:1,2016-01-04T05:05:00Z,27.4980,-83.7220,101.04,1111122 
COMPS,ioos:station:USF.COMPS:C12:1,2016-01-04T05:35:00Z,27.4980,-83.7220,100.93,1111122 
COMPS,ioos:station:USF.COMPS:C12:1,2016-01-04T06:05:00Z,27.4980,-83.7220,100.93,1111122 
COMPS,ioos:station:USF.COMPS:C12:1,2016-01-04T06:35:00Z,27.4980,-83.7220,100.81,1111122 
COMPS,ioos:station:USF.COMPS:C12:1,2016-01-04T07:05:00Z,27.4980,-83.7220,101.0,1111122 
COMPS,ioos:station:USF.COMPS:C12:1,2016-01-04T07:35:00Z,27.4980,-83.7220,101.04,1111122 
COMPS,ioos:station:USF.COMPS:C12:1,2016-01-04T08:05:00Z,27.4980,-83.7220,100.85,1111122 
COMPS,ioos:station:USF.COMPS:C12:1,2016-01-04T08:35:00Z,27.4980,-83.7220,100.81,1111122 
COMPS,ioos:station:USF.COMPS:C12:1,2016-01-04T09:05:00Z,27.4980,-83.7220,100.95,1111122 
COMPS,ioos:station:USF.COMPS:C12:1,2016-01-04T09:35:00Z,27.4980,-83.7220,100.92,1111122 
COMPS,ioos:station:USF.COMPS:C12:1,2016-01-04T10:05:00Z,27.4980,-83.7220,101.34,1111122 
COMPS,ioos:station:USF.COMPS:C12:1,2016-01-04T10:35:00Z,27.4980,-83.7220,101.06,1111122 
COMPS,ioos:station:USF.COMPS:C12:1,2016-01-04T11:05:00Z,27.4980,-83.7220,100.87,1111122 
COMPS,ioos:station:USF.COMPS:C12:1,2016-01-04T11:35:00Z,27.4980,-83.7220,100.91,1111122 
COMPS,ioos:station:USF.COMPS:C12:1,2016-01-04T12:05:00Z,27.4980,-83.7220,100.82,1111122 
COMPS,ioos:station:USF.COMPS:C12:1,2016-01-04T12:35:00Z,27.4980,-83.7220,100.93,1111122 
COMPS,ioos:station:USF.COMPS:C12:1,2016-01-04T13:05:00Z,27.4980,-83.7220,100.99,1111122 
COMPS,ioos:station:USF.COMPS:C12:1,2016-01-04T13:35:00Z,27.4980,-83.7220,101.12,1111122 
COMPS,ioos:station:USF.COMPS:C12:1,2016-01-04T14:05:00Z,27.4980,-83.7220,101.28,1111122 
COMPS,ioos:station:USF.COMPS:C12:1,2016-01-04T14:35:00Z,27.4980,-83.7220,101.44,1111122 
COMPS,ioos:station:USF.COMPS:C12:1,2016-01-04T15:05:00Z,27.4980,-83.7220,102.5,1111122 
COMPS,ioos:station:USF.COMPS:C12:1,2016-01-04T15:35:00Z,27.4980,-83.7220,101.4,1111122 
COMPS,ioos:station:USF.COMPS:C12:1,2016-01-04T16:05:00Z,27.4980,-83.7220,101.52,1111122 
COMPS,ioos:station:USF.COMPS:C12:1,2016-01-04T16:35:00Z,27.4980,-83.7220,102.0,1111122 
COMPS,ioos:station:USF.COMPS:C12:1,2016-01-04T17:05:00Z,27.4980,-83.7220,101.38,1111122 
COMPS,ioos:station:USF.COMPS:C12:1,2016-01-04T17:35:00Z,27.4980,-83.7220,101.39,1111122 
COMPS,ioos:station:USF.COMPS:C12:1,2016-01-04T18:05:00Z,27.4980,-83.7220,101.04,1111122 
COMPS,ioos:station:USF.COMPS:C12:1,2016-01-04T18:35:00Z,27.4980,-83.7220,100.97,1111122 
COMPS,ioos:station:USF.COMPS:C12:1,2016-01-04T19:05:00Z,27.4980,-83.7220,101.06,1111122 
COMPS,ioos:station:USF.COMPS:C12:1,2016-01-04T19:35:00Z,27.4980,-83.7220,101.26,1111122 
COMPS,ioos:station:USF.COMPS:C12:1,2016-01-04T20:05:00Z,27.4980,-83.7220,101.64,1111122 
COMPS,ioos:station:USF.COMPS:C12:1,2016-01-04T20:35:00Z,27.4980,-83.7220,100.81,1111122 
COMPS,ioos:station:USF.COMPS:C12:1,2016-01-04T21:05:00Z,27.4980,-83.7220,101.33,1111122 
COMPS,ioos:station:USF.COMPS:C12:1,2016-01-04T21:35:00Z,27.4980,-83.7220,101.3,1111122 
COMPS,ioos:station:USF.COMPS:C12:1,2016-01-04T22:05:00Z,27.4980,-83.7220,101.17,1111122 
COMPS,ioos:station:USF.COMPS:C12:1,2016-01-04T22:35:00Z,27.4980,-83.7220,101.82,1111122 
COMPS,ioos:station:USF.COMPS:C12:1,2016-01-04T23:05:00Z,27.4980,-83.7220,101.17,1111122 
COMPS,ioos:station:USF.COMPS:C12:1,2016-01-04T23:35:00Z,27.4980,-83.7220,101.27,1111122 
COMPS,ioos:station:USF.COMPS:C12:1,2016-01-05T00:05:00Z,27.4980,-83.7220,101.1,1111122 
COMPS,ioos:station:USF.COMPS:C12:1,2016-01-05T00:35:00Z,27.4980,-83.7220,100.88,1111122 
COMPS,ioos:station:USF.COMPS:C12:1,2016-01-05T01:05:00Z,27.4980,-83.7220,101.78,1111122 
COMPS,ioos:station:USF.COMPS:C12:1,2016-01-05T01:35:00Z,27.4980,-83.7220,101.0,1111122 
COMPS,ioos:station:USF.COMPS:C12:1,2016-01-05T02:05:00Z,27.4980,-83.7220,102.1,1111122 
COMPS,ioos:station:USF.COMPS:C12:1,2016-01-05T02:35:00Z,27.4980,-83.7220,101.5,1111122 
COMPS,ioos:station:USF.COMPS:C12:1,2016-01-05T05:05:00Z,27.4980,-83.7220,101.41,1111122 
COMPS,ioos:station:USF.COMPS:C12:1,2016-01-05T05:35:00Z,27.4980,-83.7220,100.94,1111122 
COMPS,ioos:station:USF.COMPS:C12:1,2016-01-05T06:05:00Z,27.4980,-83.7220,101.46,1111122 
COMPS,ioos:station:USF.COMPS:C12:1,2016-01-05T06:35:00Z,27.4980,-83.7220,101.28,1111122 
COMPS,ioos:station:USF.COMPS:C12:1,2016-01-05T07:05:00Z,27.4980,-83.7220,101.66,1111122 
COMPS,ioos:station:USF.COMPS:C12:1,2016-01-05T07:35:00Z,27.4980,-83.7220,101.4,1111122 
COMPS,ioos:station:USF.COMPS:C12:1,2016-01-05T08:05:00Z,27.4980,-83.7220,101.17,1111122 
COMPS,ioos:station:USF.COMPS:C12:1,2016-01-05T08:35:00Z,27.4980,-83.7220,101.06,1111122 
COMPS,ioos:station:USF.COMPS:C12:1,2016-01-05T09:05:00Z,27.4980,-83.7220,101.43,1111122 
COMPS,ioos:station:USF.COMPS:C12:1,2016-01-05T09:35:00Z,27.4980,-83.7220,101.58,1111122 
COMPS,ioos:station:USF.COMPS:C12:1,2016-01-05T10:05:00Z,27.4980,-83.7220,102.06,1111122 
COMPS,ioos:station:USF.COMPS:C12:1,2016-01-05T10:35:00Z,27.4980,-83.7220,101.13,1111122 
COMPS,ioos:station:USF.COMPS:C12:1,2016-01-05T11:05:00Z,27.4980,-83.7220,103.19,1111122 
COMPS,ioos:station:USF.COMPS:C12:1,2016-01-05T11:35:00Z,27.4980,-83.7220,101.99,1111122 
COMPS,ioos:station:USF.COMPS:C12:1,2016-01-05T12:05:00Z,27.4980,-83.7220,100.54,1111122 
COMPS,ioos:station:USF.COMPS:C12:1,2016-01-05T12:35:00Z,27.4980,-83.7220,100.56,1111122 
COMPS,ioos:station:USF.COMPS:C12:1,2016-01-05T13:05:00Z,27.4980,-83.7220,100.49,1111122 
COMPS,ioos:station:USF.COMPS:C12:1,2016-01-05T13:35:00Z,27.4980,-83.7220,100.54,1111122 
COMPS,ioos:station:USF.COMPS:C12:1,2016-01-05T14:05:00Z,27.4980,-83.7220,100.53,1111122 
COMPS,ioos:station:USF.COMPS:C12:1,2016-01-05T14:35:00Z,27.4980,-83.7220,100.64,1111122 
COMPS,ioos:station:USF.COMPS:C12:1,2016-01-05T15:05:00Z,27.4980,-83.7220,100.67,1111122 
COMPS,ioos:station:USF.COMPS:C12:1,2016-01-05T15:35:00Z,27.4980,-83.7220,100.59,1111122 
COMPS,ioos:station:USF.COMPS:C12:1,2016-01-05T16:05:00Z,27.4980,-83.7220,100.58,1111122 
COMPS,ioos:station:USF.COMPS:C12:1,2016-01-05T16:35:00Z,27.4980,-83.7220,100.72,1111122 
COMPS,ioos:station:USF.COMPS:C12:1,2016-01-05T17:05:00Z,27.4980,-83.7220,100.88,1111122 
COMPS,ioos:station:USF.COMPS:C12:1,2016-01-05T17:35:00Z,27.4980,-83.7220,101.03,1111122 
COMPS,ioos:station:USF.COMPS:C12:1,2016-01-05T18:05:00Z,27.4980,-83.7220,100.83,1111122 
COMPS,ioos:station:USF.COMPS:C12:1,2016-01-05T18:35:00Z,27.4980,-83.7220,100.9,1111122 
COMPS,ioos:station:USF.COMPS:C12:1,2016-01-05T19:05:00Z,27.4980,-83.7220,100.84,1111122 
COMPS,ioos:station:USF.COMPS:C12:1,2016-01-05T19:35:00Z,27.4980,-83.7220,100.96,1111122 
COMPS,ioos:station:USF.COMPS:C12:1,2016-01-05T20:05:00Z,27.4980,-83.7220,101.13,1111122 
COMPS,ioos:station:USF.COMPS:C12:1,2016-01-05T20:35:00Z,27.4980,-83.7220,101.07,1111122 
COMPS,ioos:station:USF.COMPS:C12:1,2016-01-06T05:05:00Z,27.4980,-83.7220,100.82,1111122 
COMPS,ioos:station:USF.COMPS:C12:1,2016-01-06T05:35:00Z,27.4980,-83.7220,101.1,1111122 
COMPS,ioos:station:USF.COMPS:C12:1,2016-01-06T06:05:00Z,27.4980,-83.7220,101.66,1111122 
COMPS,ioos:station:USF.COMPS:C12:1,2016-01-06T06:35:00Z,27.4980,-83.7220,101.11,1111122 
COMPS,ioos:station:USF.COMPS:C12:1,2016-01-06T07:05:00Z,27.4980,-83.7220,101.02,1111122 
COMPS,ioos:station:USF.COMPS:C12:1,2016-01-06T07:35:00Z,27.4980,-83.7220,100.92,1111122 
COMPS,ioos:station:USF.COMPS:C12:1,2016-01-06T08:05:00Z,27.4980,-83.7220,101.7,1111122 
COMPS,ioos:station:USF.COMPS:C12:1,2016-01-06T08:35:00Z,27.4980,-83.7220,101.74,1111122 
COMPS,ioos:station:USF.COMPS:C12:1,2016-01-06T09:05:00Z,27.4980,-83.7220,101.68,1111122 
COMPS,ioos:station:USF.COMPS:C12:1,2016-01-06T09:35:00Z,27.4980,-83.7220,101.24,1111122 
COMPS,ioos:station:USF.COMPS:C12:1,2016-01-06T10:05:00Z,27.4980,-83.7220,101.44,1111122 
COMPS,ioos:station:USF.COMPS:C12:1,2016-01-06T10:35:00Z,27.4980,-83.7220,100.99,1111122 
COMPS,ioos:station:USF.COMPS:C12:1,2016-01-06T11:05:00Z,27.4980,-83.7220,100.87,1111122 
COMPS,ioos:station:USF.COMPS:C12:1,2016-01-06T11:35:00Z,27.4980,-83.7220,100.84,1111122 
COMPS,ioos:station:USF.COMPS:C12:1,2016-01-06T12:05:00Z,27.4980,-83.7220,100.79,1111122 
COMPS,ioos:station:USF.COMPS:C12:1,2016-01-06T12:35:00Z,27.4980,-83.7220,100.88,1111122 
COMPS,ioos:station:USF.COMPS:C12:1,2016-01-06T13:05:00Z,27.4980,-83.7220,100.87,1111122 
COMPS,ioos:station:USF.COMPS:C12:1,2016-01-06T13:35:00Z,27.4980,-83.7220,100.79,1111122 
COMPS,ioos:station:USF.COMPS:C12:1,2016-01-06T14:05:00Z,27.4980,-83.7220,100.83,1111122 
COMPS,ioos:station:USF.COMPS:C12:1,2016-01-06T14:35:00Z,27.4980,-83.7220,100.92,1111122 
COMPS,ioos:station:USF.COMPS:C12:1,2016-01-06T15:05:00Z,27.4980,-83.7220,101.03,1111122 
COMPS,ioos:station:USF.COMPS:C12:1,2016-01-06T15:35:00Z,27.4980,-83.7220,100.94,1111122 
COMPS,ioos:station:USF.COMPS:C12:1,2016-01-06T16:05:00Z,27.4980,-83.7220,101.02,1111122 
COMPS,ioos:station:USF.COMPS:C12:1,2016-01-06T16:35:00Z,27.4980,-83.7220,100.83,1111122 
COMPS,ioos:station:USF.COMPS:C12:1,2016-01-06T17:05:00Z,27.4980,-83.7220,100.88,1111122 
COMPS,ioos:station:USF.COMPS:C12:1,2016-01-06T17:35:00Z,27.4980,-83.7220,100.96,1111122 
COMPS,ioos:station:USF.COMPS:C12:1,2016-01-06T18:05:00Z,27.4980,-83.7220,100.92,1111122 
COMPS,ioos:station:USF.COMPS:C12:1,2016-01-06T18:35:00Z,27.4980,-83.7220,101.01,1111122 
COMPS,ioos:station:USF.COMPS:C12:1,2016-01-06T19:05:00Z,27.4980,-83.7220,100.96,1111122 
COMPS,ioos:station:USF.COMPS:C12:1,2016-01-06T19:35:00Z,27.4980,-83.7220,100.94,1111122 
COMPS,ioos:station:USF.COMPS:C12:1,2016-01-06T20:05:00Z,27.4980,-83.7220,100.99,1111122 
COMPS,ioos:station:USF.COMPS:C12:1,2016-01-06T20:35:00Z,27.4980,-83.7220,101.04,1111122 
COMPS,ioos:station:USF.COMPS:C12:1,2016-01-06T21:05:00Z,27.4980,-83.7220,100.98,1111122 
COMPS,ioos:station:USF.COMPS:C12:1,2016-01-06T21:35:00Z,27.4980,-83.7220,101.17,1111122 
COMPS,ioos:station:USF.COMPS:C12:1,2016-01-06T22:05:00Z,27.4980,-83.7220,101.2,1111122 
COMPS,ioos:station:USF.COMPS:C12:1,2016-01-06T22:35:00Z,27.4980,-83.7220,101.25,1111122 
COMPS,ioos:station:USF.COMPS:C12:1,2016-01-06T23:05:00Z,27.4980,-83.7220,101.3,1111122 
COMPS,ioos:station:USF.COMPS:C12:1,2016-01-06T23:35:00Z,27.4980,-83.7220,101.23,1111122 
COMPS,ioos:station:USF.COMPS:C12:1,2016-01-07T00:05:00Z,27.4980,-83.7220,101.07,1111122 
COMPS,ioos:station:USF.COMPS:C12:1,2016-01-07T00:35:00Z,27.4980,-83.7220,101.12,1111122 
COMPS,ioos:station:USF.COMPS:C12:1,2016-01-07T01:05:00Z,27.4980,-83.7220,101.14,1111122 
COMPS,ioos:station:USF.COMPS:C12:1,2016-01-07T01:35:00Z,27.4980,-83.7220,101.44,1111122 
COMPS,ioos:station:USF.COMPS:C12:1,2016-01-07T02:05:00Z,27.4980,-83.7220,101.56,1111122 
COMPS,ioos:station:USF.COMPS:C12:1,2016-01-07T02:35:00Z,27.4980,-83.7220,101.19,1111122 
COMPS,ioos:station:USF.COMPS:C12:1,2016-01-07T05:05:00Z,27.4980,-83.7220,101.13,1111122 
COMPS,ioos:station:USF.COMPS:C12:1,2016-01-07T05:35:00Z,27.4980,-83.7220,101.0,1111122 
COMPS,ioos:station:USF.COMPS:C12:1,2016-01-07T06:05:00Z,27.4980,-83.7220,101.21,1111122 
COMPS,ioos:station:USF.COMPS:C12:1,2016-01-07T06:35:00Z,27.4980,-83.7220,100.82,1111122 
COMPS,ioos:station:USF.COMPS:C12:1,2016-01-07T07:05:00Z,27.4980,-83.7220,101.15,1111122 
COMPS,ioos:station:USF.COMPS:C12:1,2016-01-07T07:35:00Z,27.4980,-83.7220,101.54,1111122 
COMPS,ioos:station:USF.COMPS:C12:1,2016-01-07T08:05:00Z,27.4980,-83.7220,101.03,1111122 
COMPS,ioos:station:USF.COMPS:C12:1,2016-01-07T08:35:00Z,27.4980,-83.7220,101.03,1111122 
COMPS,ioos:station:USF.COMPS:C12:1,2016-01-07T09:05:00Z,27.4980,-83.7220,101.2,1111122 
COMPS,ioos:station:USF.COMPS:C12:1,2016-01-07T09:35:00Z,27.4980,-83.7220,101.49,1111122 
COMPS,ioos:station:USF.COMPS:C12:1,2016-01-07T10:05:00Z,27.4980,-83.7220,101.15,1111122 
COMPS,ioos:station:USF.COMPS:C12:1,2016-01-07T10:35:00Z,27.4980,-83.7220,101.06,1111122 
COMPS,ioos:station:USF.COMPS:C12:1,2016-01-07T11:05:00Z,27.4980,-83.7220,101.11,1111122 
COMPS,ioos:station:USF.COMPS:C12:1,2016-01-07T11:35:00Z,27.4980,-83.7220,101.12,1111122 
COMPS,ioos:station:USF.COMPS:C12:1,2016-01-07T12:05:00Z,27.4980,-83.7220,101.15,1111122 
COMPS,ioos:station:USF.COMPS:C12:1,2016-01-07T12:35:00Z,27.4980,-83.7220,101.03,1111122 
COMPS,ioos:station:USF.COMPS:C12:1,2016-01-07T13:05:00Z,27.4980,-83.7220,101.51,1111122 
COMPS,ioos:station:USF.COMPS:C12:1,2016-01-07T13:35:00Z,27.4980,-83.7220,101.49,1111122 
COMPS,ioos:station:USF.COMPS:C12:1,2016-01-07T14:05:00Z,27.4980,-83.7220,101.19,1111122 
COMPS,ioos:station:USF.COMPS:C12:1,2016-01-07T14:35:00Z,27.4980,-83.7220,101.5,1111122 
COMPS,ioos:station:USF.COMPS:C12:1,2016-01-07T15:05:00Z,27.4980,-83.7220,101.77,1111122 
COMPS,ioos:station:USF.COMPS:C12:1,2016-01-07T15:35:00Z,27.4980,-83.7220,101.81,1111122 
COMPS,ioos:station:USF.COMPS:C12:1,2016-01-07T16:05:00Z,27.4980,-83.7220,101.55,1111122 
COMPS,ioos:station:USF.COMPS:C12:1,2016-01-07T16:35:00Z,27.4980,-83.7220,101.6,1111122 
COMPS,ioos:station:USF.COMPS:C12:1,2016-01-07T17:05:00Z,27.4980,-83.7220,100.98,1111122 
COMPS,ioos:station:USF.COMPS:C12:1,2016-01-07T17:35:00Z,27.4980,-83.7220,101.58,1111122 
COMPS,ioos:station:USF.COMPS:C12:1,2016-01-07T18:05:00Z,27.4980,-83.7220,101.61,1111122 
COMPS,ioos:station:USF.COMPS:C12:1,2016-01-07T18:35:00Z,27.4980,-83.7220,101.31,1111122 
COMPS,ioos:station:USF.COMPS:C12:1,2016-01-07T19:05:00Z,27.4980,-83.7220,101.06,1111122 
COMPS,ioos:station:USF.COMPS:C12:1,2016-01-07T19:35:00Z,27.4980,-83.7220,101.14,1111122 
COMPS,ioos:station:USF.COMPS:C12:1,2016-01-07T20:05:00Z,27.4980,-83.7220,101.05,1111122 
COMPS,ioos:station:USF.COMPS:C12:1,2016-01-07T20:35:00Z,27.4980,-83.7220,100.88,1111122 
COMPS,ioos:station:USF.COMPS:C12:1,2016-01-07T21:05:00Z,27.4980,-83.7220,100.99,1111122 
COMPS,ioos:station:USF.COMPS:C12:1,2016-01-07T21:35:00Z,27.4980,-83.7220,101.48,1111122 
COMPS,ioos:station:USF.COMPS:C12:1,2016-01-07T22:05:00Z,27.4980,-83.7220,101.07,1111122 